Kezdőlap
METAR-TAF:

METAR-TAF

Repülőterek :

Olivia Regional Airport

Olivia, Minnesota, Amerikai Egyesült Államok

földrajzi szélesség: 44-46-43N, földrajzi hosszúság: 095-01-58W, magasság: 328 m

Jelenlegi meteorológiai megfigyelések

A jelentés 10 perccel ezelõtt készült, 15:55 UTC
Északnyugati szél 20 kt széllökések: 26 kt
Hőmérséklet 7°C
Páratartalom 87%
Légköri nyomás 1006 hPa
Látótávolság: 16.1 km
Borult 1600 lábon

METAR: KOVL 171555Z AUTO 32020G26KT 10SM OVC016 07/05 A2972 RMK AO2

Idő: 11:05 (16:05 UTC)


TAF: hiányzik

Meteorológiai megfigyelések és előrejelzések több, mint 4000 repülőtéren (METAR és TAF jelentéseket).

A térképen piros és sárga pontok jelzik az elérhető meteorológiai állomásokat.

Mozgassa az egeret a pont fölött, hogy megjelenjen az állomás neve.

Azután kattintson az időjárási megfigyelések és előrejelzések megtekintéséhez.

A térkép megváltoztatása: kattintson a fekete keresztel jelölt zöld gombra ráközelítéshez, a vonallal jelölt zöld gombra távolításhoz, vagy a zöld nyilakra a szomszédos térképek eléréséhez.


METAR-TAF: